Location: El Diablo
(32.4667°N, 116.4500°W)
Time: 01:26:13
(UTC+00:00)

SL-16 R/B - Pass Details

Date: 10 September 2024
Orbit: 842 x 845 km, 71.0° (Epoch: 06 October)

Event Time Altitude Azimuth Distance (km) Brightness Sun altitude
Rises 12:28:57 0° 321° (NW) 3,405 5.1 -12.8°
Reaches altitude 10° 12:31:58 10° 306° (NW) 2,466 4.3 -12.2°
Maximum altitude 12:36:03 21° 260° (W) 1,821 3.3 -11.4°
Drops below altitude 10° 12:40:07 10° 213° (SSW) 2,456 4.2 -10.6°
Sets 12:43:08 0° 197° (SSW) 3,386 5.0 -9.9°
